Regional Weather Roundup
Issued by NWS

Home | Current Version | Previous Version | Graphics & Text | Print | Product List | Glossary On
Versions: 1 2 3 4 5 6 7 8 9 10 11 12 13 14 15 16 17 18 19 20 21 22 23 24 25 26 27 28 29 30 31 32 33 34 35 36 37 38 39 40 41 42 43 44 45 46 47 48 49 50
000
ASUS45 KABQ 222001
RWRNM
NEW MEXICO REGIONAL WEATHER ROUNDUP
NATIONAL WEATHER SERVICE ALBUQUERQUE NM
200 PM MDT SUN OCT 22 2017

NOTE: "FAIR" MEANS FEW OR NO CLOUDS BELOW 12,000 FEET AGL WITH NO
       SIGNIFICANT WEATHER OR OBSTRUCTIONS TO VISION.

      THIS PRODUCT IS RELEASED AS TWO VERSIONS.  ONE VERSION NEAR
      THE TOP OF THE HOUR CONTAINING PRELIMINARY DATA FROM ALBUQUERQUE
      AND OTHER STATIONS.  A FINAL VERSION WITH ADDITIONAL DATA IS
      ISSUED ABOUT 10 MINUTES AFTER THE HOUR.

NMZ501-503-504-510>518-222100-
NORTHWEST PLATEAU/NORTHCENTRAL MOUNTAINS

CITY           SKY/WX    TMP DP  RH WIND       PRES   REMARKS
FARMINGTON     FAIR      61  17  18 W14       30.38F
LOS ALAMOS     FAIR      55  13  19 E6        30.41F
SANTA FE       FAIR      57  14  18 CALM      30.37F
TAOS           FAIR      57  13  17 CALM      30.40F
ANGEL FIRE     FAIR      55  18  23 W20G29    30.37F

$$
NMZ402-403-502-505>509-222100-
WESTCENTRAL MOUNTAINS/SOUTHWEST MOUNTAINS

CITY           SKY/WX    TMP DP  RH WIND       PRES   REMARKS
GALLUP         FAIR      66  19  16 VRB5      30.43F
GRANTS         FAIR      65  18  16 N12       30.42F

$$
NMZ407-409-411-412-222100-
SOUTHERN DESERTS

CITY           SKY/WX    TMP DP  RH WIND       PRES   REMARKS
DEMING         FAIR      74  16  11 S6        30.31F
LAS CRUCES     FAIR      73  14  10 N3        30.32F
HOLLOMAN AFB   FAIR      73  13  10 N5        30.31F
ALAMOGORDO     FAIR      70  14  11 NW6       30.31F
T OR C         FAIR      69  13  11 SE7       30.32F

$$
NMZ519>523-222100-
CENTRAL VALLEYS/CENTRAL HIGHLANDS

CITY           SKY/WX    TMP DP  RH WIND       PRES   REMARKS
ALBUQUERQUE    FAIR      62  12  14 SW5       30.37F
DOUBLE EAGLE   MOSUNNY   61  14  16 VRB7      30.39F
CLINES CORNERS NOT AVBL
BELEN          NOT AVBL
SOCORRO        FAIR      69  14  12 N5        30.33F

$$
NMZ524>526-539-540-222100-
SOUTHCENTRAL MOUNTAINS

CITY           SKY/WX    TMP DP  RH WIND       PRES   REMARKS
RUIDOSO        FAIR      64  19  17 NW14G25   30.39F

$$
NMZ527>531-222100-
NORTHEAST HIGHLANDS/NORTHEAST PLAINS

CITY           SKY/WX    TMP DP  RH WIND       PRES   REMARKS
LAS VEGAS      FAIR      64  19  17 S8        30.29F
RATON          FAIR      57  27  31 SW6       30.26F
CLAYTON        FAIR      61  26  26 SW16G22   30.22F

$$
NMZ532>537-222100-
EASTCENTRAL PLAINS

CITY           SKY/WX    TMP DP  RH WIND       PRES   REMARKS
SANTA ROSA     FAIR      71  20  14 W8        30.21F
TUCUMCARI      FAIR      69  23  17 SW15      30.20F
CANNON AFB     FAIR      65  27  23 SW15      30.26F
CLOVIS AIRPORT   N/A     66  28  24 SW13      30.25F

$$
NMZ028-029-538-222100-
SOUTHEAST PLAINS

CITY           SKY/WX    TMP DP  RH WIND       PRES   REMARKS
ROSWELL        FAIR      68  28  22 S10       30.27F
ARTESIA        FAIR      68  28  22 SE12      30.27F
CARLSBAD       FAIR      68  33  27 S6        30.27F
HOBBS          SUNNY     68  27  21 SW8       30.28F


$$




USA.gov is the U.S. government's official web portal to all federal, state and local government web resources and services.